Terminal Aerodrome Forecast
Issued by NWS Pittsburgh, PA

Current Version | Previous Version | Graphics & Text | Print | Product List | Glossary On
Versions: 1 2 3 4 5 6 7 8 9 10 11 12 13 14 15 16 17 18 19 20 21 22 23 24 25 26 27 28 29 30 31 32 33 34 35
000
FTUS41 KPBZ 202055 AAA
TAFPIT
TAF AMD
KPIT 202055Z 2021/2124 20006KT P6SM OVC040
     FM210600 20003KT 3SM BR OVC008
     FM211200 15004KT P6SM BKN015
     FM211800 18005KT P6SM BKN040=

USA.gov is the U.S. government's official web portal to all federal, state and local government web resources and services.